Regional Weather Roundup
Issued by NWS

Home | Current Version | Previous Version | Graphics & Text | Print | Product List | Glossary On
Versions: 1 2 3 4 5 6 7 8 9 10 11 12 13 14 15 16 17 18 19 20 21 22 23 24 25 26 27 28 29 30 31 32 33 34 35 36 37 38 39 40 41 42 43 44 45 46 47 48 49 50
000
ASUS45 KBOU 301007
RWRCO

WEATHER ROUNDUP FOR COLORADO
NATIONAL WEATHER SERVICE DENVER/BOULDER CO
400 AM MDT THU MAR 30 2017

NOTE: "FAIR" INDICATES FEW OR NO CLOUDS BELOW 12000 FEET WITH NO
SIGNIFICANT WEATHER AND/OR OBSTRUCTIONS TO VISIBILITY.

COZ001>005-013-030-031-301100-
...NORTHWEST COLORADO...

CITY           SKY/WX    TMP DP  RH WIND       PRES   REMARKS
CRAIG          CLOUDY    33  28  81 CALM      29.99F
HAYDEN         CLOUDY    36  27  69 E6        30.00F
MEEKER         FAIR      33  28  81 N5        30.00F WCI  29
MOUNT WERNER   NOT AVBL
STEAMBOAT SPGS CLOUDY    32  29  86 E3        30.00F
WALDEN         NOT AVBL
$$

COZ006>008-011-301100-
...WEST CENTRAL VALLEYS...

CITY           SKY/WX    TMP DP  RH WIND       PRES   REMARKS
GRAND JUNCTION FAIR      42  30  62 SE13      29.98F
MONTROSE       FAIR      36  28  73 SE10      30.05F
EAGLE          CLOUDY    33  27  78 E5        30.07F WCI  29
RIFLE          FAIR      34  26  72 CALM      30.02F
DELTA          FAIR      37  27  67 NE6       30.03F
NUCLA          FAIR      36  27  69 E9        30.07F
$$

COZ017>023-064>068-301100-
...SOUTHWEST COLORADO...

CITY           SKY/WX    TMP DP  RH WIND       PRES   REMARKS
DURANGO        FAIR      27  19  72 SE6       30.02F WCI  20
CORTEZ         FAIR      28  24  85 E7        30.04F WCI  21
PAGOSA SPRINGS FAIR      29  21  71 CALM      30.05F
TELLURIDE      NOT AVBL
WOLF CREEK PAS FAIR      27   3  36 W8        30.18F WCI  18
$$

COZ009-010-012-014-032>034-037-058>063-301100-
...CENTRAL COLORADO...

CITY           SKY/WX    TMP DP  RH WIND       PRES   REMARKS
ASPEN          CLOUDY    34  23  64 SW5       30.05F WCI  30
BUENA VISTA    FAIR      34  19  55 CALM      30.00F
COPPER MTN     CLOUDY    27  18  69 MISG      30.10S
BERTHOUD PASS  CLOUDY    18   7  62 NW23G32   30.06S HAZE    WCI   0
COTTONWOOD PAS FAIR      36  16  44 W14G28    30.02F
GUNNISON       FAIR      28  23  81 CALM      30.08S
KREMMLING      CLOUDY    34  30  86 CALM      30.04F
LEADVILLE      CLOUDY    26  16  65 VRB3      30.06S
MONARCH PASS   FOG       19  18  93 W38       30.15F VSB 3/4 WCI  -1
SALIDA         FAIR      35  21  56 NW7       30.06F WCI  29
SUNLIGHT       CLOUDY    27  19  74 SW8       30.14F WCI  18
WILKERSON PASS FAIR      28  16  59 NW13G28   30.04F WCI  18
$$

COZ069>075-301100-
...SAN LUIS VALLEY/SANGRE DE CRISTO MOUNTAINS...

CITY           SKY/WX    TMP DP  RH WIND       PRES   REMARKS
ALAMOSA        FAIR      25  22  88 SW6       30.03F WCI  18
LA VETA PASS   NOT AVBL
SAGUACHE       FAIR      30  21  69 NW13      30.03F WCI  20
$$

COZ035-036-038>040-301100-
...NORTHERN COLORADO FRONT RANGE...

CITY           SKY/WX    TMP DP  RH WIND       PRES   REMARKS
DENVER INTL AP FAIR      36  29  75 SW7       29.85F
DMNS CITY PARK   N/A     39  29  67 MISG      29.85F
AURORA         CLEAR     37  30  77 S6        29.86F
FRONT RANGE AP FAIR      34  32  93 S7        29.86F WCI  28
ERIE MUNI ARPT FAIR      31  30  95 CALM        N/A
BOULDER MUN AP FAIR      37  32  81 CALM      29.86S
CENTENNIAL     FAIR      32  28  85 SE5       29.86F WCI  27
BROOMFIELD     FAIR      37  32  81 N12       29.86F
FORT COLLINS   FAIR      33  32  96 N7        29.87F WCI  27
LONGMONT       FAIR      35  31  85 W5        29.88F WCI  31
$$

COZ041-046-047-076>085-087-088-301100-
...PIKES PEAK/PALMER DIVIDE AND SOUTHERN FOOTHILLS...

CITY           SKY/WX    TMP DP  RH WIND       PRES   REMARKS
COLO. SPRINGS  FAIR      31  27  85 N9        29.89F WCI  23
A. F. ACADEMY  CLEAR     29  26  92 CALM      29.89
SCHRIEVER AFB  FAIR      34  29  83 NW7       29.89F WCI  28
ELLICOTT       FAIR     N/A N/A N/A N3        29.87F
FALCON         FAIR      32  26  77 SW3       29.91F
FORT CARSON    FAIR      33  28  82 NW9       29.87F WCI  25
LIMON          FAIR      28  27  96 N8        29.86F WCI  20
MONUMENT HILL  FAIR      34  23  64 SW7       29.91F WCI  28
TRINIDAD       FAIR      35  30  82 SW16      29.90F WCI  25
$$

COZ042>045-048>051-090-091-301100-
...NORTHEAST COLORADO...

CITY           SKY/WX    TMP DP  RH WIND       PRES   REMARKS
GREELEY ARPT   FAIR      29  28  96 N7        29.88F WCI  22
AKRON          FAIR      31  29  92 W9        29.84F WCI  23
BURLINGTON     FAIR      34  32  92 NW12      29.82F WCI  25
WRAY           NOT AVBL
STERLING       NOT AVBL
HOLYOKE        FAIR      36  32  87 NW7       29.83F
FORT MORGAN    FAIR      32  31  94 W6        29.86F WCI  27
$$

COZ086-089-092>099-301100-
...SOUTHEAST COLORADO...

CITY           SKY/WX    TMP DP  RH WIND       PRES   REMARKS
PUEBLO         FAIR      33  31  92 CALM      29.87F
LA JUNTA       FAIR      34  31  88 W10       29.86F WCI  26
LAMAR          FAIR      33  31  92 SW7       29.83F WCI  27
SPRINGFIELD      N/A     36  33  89 W9        29.84F
$$



USA.gov is the U.S. government's official web portal to all federal, state and local government web resources and services.